When you browse on this site, cookies collect data to enhance your experience and personalize the content and advertising you see.
Visit our Privacy Policy to learn more. By continuing to use the site, you agree to this use of cookies and data.
  • Em Portugal
  • Lista de países
  • Para 7 dias
  • Temperatura da água
  • Mapas de satélite
  • Mapa do tempo
  • Widgets de tempo
  • user-avatar
    Iniciar Sessão

    Previsão horária em Shishovka

    Hoje, 19 Julho, Sexta-feira

    Tempo Temperatura Precipitação Vento Pressão Humidade
    00:00 +17°C° 0 mm 3 m/s 737 mmHg 76%
    01:00 +17°C° 0 mm 3 m/s 737 mmHg 74%
    02:00 +16°C° 0 mm 3 m/s 737 mmHg 75%
    03:00 +16°C° 0 mm 3 m/s 737 mmHg 75%
    04:00 +14°C° 0 mm 3 m/s 737 mmHg 75%
    05:00 +17°C° 0 mm 3 m/s 737 mmHg 75%
    06:00 +18°C° 0 mm 3 m/s 737 mmHg 75%
    07:00 +19°C° 0 mm 3 m/s 737 mmHg 74%
    08:00 +21°C° 0 mm 3 m/s 737 mmHg 72%
    09:00 +24°C° 0 mm 3 m/s 737 mmHg 69%
    10:00 +26°C° 0 mm 2 m/s 737 mmHg 66%
    11:00 +27°C° 0 mm 2 m/s 737 mmHg 64%
    12:00 +28°C° 0 mm 2 m/s 737 mmHg 62%
    13:00 +29°C° 0 mm 2 m/s 737 mmHg 59%
    14:00 +29°C° 0.7 mm 2 m/s 737 mmHg 67%
    15:00 +28°C° 0.7 mm 2 m/s 736 mmHg 74%
    16:00 +28°C° 0 mm 2 m/s 737 mmHg 82%
    17:00 +27°C° 0.6 mm 2 m/s 737 mmHg 85%
    18:00 +26°C° 0.6 mm 2 m/s 736 mmHg 87%
    19:00 +26°C° 0.6 mm 2 m/s 736 mmHg 90%
    20:00 +24°C° 0.9 mm 2 m/s 736 mmHg 92%
    21:00 +23°C° 0.9 mm 2 m/s 736 mmHg 94%
    22:00 +21°C° 0.9 mm 2 m/s 736 mmHg 96%
    23:00 +20°C° 0.9 mm 2 m/s 736 mmHg 96%

    Amanhã, 20 Julho, Sábado

    Tempo Temperatura Precipitação Vento Pressão Humidade
    00:00 +20°C° 0.9 mm 2 m/s 736 mmHg 97%
    01:00 +19°C° 0.9 mm 2 m/s 736 mmHg 98%
    02:00 +19°C° 0 mm 2 m/s 737 mmHg 98%
    03:00 +18°C° 0 mm 2 m/s 737 mmHg 98%
    04:00 +18°C° 0 mm 2 m/s 737 mmHg 98%
    05:00 +18°C° 0 mm 3 m/s 738 mmHg 97%
    06:00 +19°C° 0 mm 3 m/s 738 mmHg 97%
    07:00 +19°C° 0 mm 3 m/s 738 mmHg 96%
    08:00 +20°C° 0 mm 3 m/s 738 mmHg 91%
    09:00 +21°C° 0 mm 3 m/s 738 mmHg 86%
    10:00 +22°C° 0 mm 3 m/s 738 mmHg 81%
    11:00 +25°C° 0 mm 3 m/s 739 mmHg 75%
    12:00 +26°C° 0 mm 3 m/s 739 mmHg 69%
    13:00 +27°C° 0 mm 3 m/s 739 mmHg 63%
    14:00 +27°C° 0 mm 3 m/s 739 mmHg 64%
    15:00 +27°C° 0 mm 3 m/s 739 mmHg 64%
    16:00 +27°C° 0 mm 3 m/s 739 mmHg 64%
    17:00 +26°C° 0 mm 2 m/s 739 mmHg 70%
    18:00 +25°C° 0 mm 2 m/s 739 mmHg 75%
    19:00 +24°C° 0 mm 2 m/s 739 mmHg 81%
    20:00 +21°C° 0 mm 2 m/s 739 mmHg 84%
    21:00 +20°C° 0 mm 2 m/s 739 mmHg 88%
    22:00 +18°C° 0 mm 2 m/s 739 mmHg 92%
    23:00 +17°C° 0 mm 2 m/s 739 mmHg 93%

    Depois de amanhã, 21 Julho, Domingo

    Tempo Temperatura Precipitação Vento Pressão Humidade
    00:00 +17°C° 0 mm 2 m/s 739 mmHg 93%
    01:00 +16°C° 0 mm 2 m/s 739 mmHg 94%
    02:00 +16°C° 0 mm 2 m/s 738 mmHg 95%
    03:00 +16°C° 0 mm 2 m/s 738 mmHg 96%
    04:00 +15°C° 0 mm 2 m/s 738 mmHg 96%
    05:00 +16°C° 0 mm 2 m/s 739 mmHg 93%
    06:00 +17°C° 0 mm 2 m/s 739 mmHg 91%
    07:00 +19°C° 0 mm 2 m/s 739 mmHg 88%
    08:00 +20°C° 0 mm 2 m/s 739 mmHg 82%
    09:00 +21°C° 0 mm 3 m/s 738 mmHg 77%
    10:00 +22°C° 0 mm 3 m/s 738 mmHg 72%
    11:00 +22°C° 0.2 mm 3 m/s 738 mmHg 71%
    12:00 +23°C° 0.2 mm 4 m/s 738 mmHg 70%
    13:00 +23°C° 0.2 mm 4 m/s 738 mmHg 69%
    14:00 +23°C° 0.4 mm 4 m/s 738 mmHg 71%
    15:00 +23°C° 0.4 mm 4 m/s 738 mmHg 73%
    16:00 +23°C° 0.4 mm 4 m/s 738 mmHg 75%
    17:00 +22°C° 0.5 mm 3 m/s 738 mmHg 80%
    18:00 +21°C° 0.5 mm 3 m/s 738 mmHg 84%
    19:00 +20°C° 0.5 mm 2 m/s 738 mmHg 89%
    20:00 +19°C° 0 mm 2 m/s 738 mmHg 91%
    21:00 +18°C° 0 mm 2 m/s 738 mmHg 93%
    22:00 +16°C° 0 mm 2 m/s 737 mmHg 95%
    23:00 +16°C° 0 mm 2 m/s 737 mmHg 96%

    22 Julho, Segunda-feira

    Tempo Temperatura Precipitação Vento Pressão Humidade
    00:00 +15°C° 0 mm 2 m/s 737 mmHg 96%
    01:00 +15°C° 0 mm 2 m/s 737 mmHg 97%
    02:00 +14°C° 0 mm 2 m/s 737 mmHg 97%
    03:00 +14°C° 0 mm 2 m/s 737 mmHg 97%
    04:00 +14°C° 0 mm 2 m/s 737 mmHg 98%
    05:00 +15°C° 0 mm 2 m/s 737 mmHg 97%
    06:00 +16°C° 0 mm 2 m/s 737 mmHg 96%
    07:00 +17°C° 0 mm 3 m/s 737 mmHg 95%
    08:00 +17°C° 0 mm 3 m/s 737 mmHg 91%
    09:00 +18°C° 0 mm 3 m/s 737 mmHg 87%
    10:00 +19°C° 0 mm 4 m/s 737 mmHg 84%
    11:00 +20°C° 0 mm 4 m/s 737 mmHg 78%
    12:00 +21°C° 0 mm 3 m/s 737 mmHg 73%
    13:00 +22°C° 0 mm 3 m/s 736 mmHg 67%
    14:00 +22°C° 0.6 mm 3 m/s 736 mmHg 72%
    15:00 +22°C° 0.6 mm 3 m/s 736 mmHg 77%
    16:00 +21°C° 0.6 mm 4 m/s 736 mmHg 82%
    17:00 +21°C° 0.4 mm 3 m/s 736 mmHg 85%
    18:00 +20°C° 0.4 mm 2 m/s 736 mmHg 87%
    19:00 +20°C° 0.4 mm 2 m/s 736 mmHg 90%
    20:00 +19°C° 0.3 mm 2 m/s 736 mmHg 91%
    21:00 +17°C° 0.3 mm 2 m/s 736 mmHg 93%
    22:00 +16°C° 0.3 mm 2 m/s 736 mmHg 95%
    23:00 +15°C° 0 mm 2 m/s 736 mmHg 96%

    23 Julho, Terça-feira

    Tempo Temperatura Precipitação Vento Pressão Humidade
    00:00 +15°C° 0 mm 2 m/s 736 mmHg 96%
    01:00 +14°C° 0 mm 2 m/s 736 mmHg 97%
    02:00 +14°C° 0 mm 2 m/s 736 mmHg 97%
    03:00 +13°C° 0 mm 1 m/s 736 mmHg 97%
    04:00 +13°C° 0 mm 1 m/s 736 mmHg 97%
    05:00 +14°C° 0 mm 1 m/s 736 mmHg 96%
    06:00 +15°C° 0 mm 2 m/s 736 mmHg 95%
    07:00 +16°C° 0 mm 2 m/s 737 mmHg 93%
    08:00 +17°C° 0.1 mm 2 m/s 737 mmHg 89%
    09:00 +18°C° 0.1 mm 3 m/s 737 mmHg 84%
    10:00 +19°C° 0.1 mm 3 m/s 737 mmHg 80%
    11:00 +20°C° 0.2 mm 3 m/s 737 mmHg 77%
    12:00 +20°C° 0.2 mm 3 m/s 737 mmHg 73%
    13:00 +21°C° 0.2 mm 4 m/s 737 mmHg 70%
    14:00 +21°C° 0 mm 3 m/s 737 mmHg 69%
    15:00 +21°C° 0 mm 3 m/s 737 mmHg 68%
    16:00 +21°C° 0 mm 3 m/s 737 mmHg 66%
    17:00 +21°C° 0 mm 3 m/s 737 mmHg 72%
    18:00 +20°C° 0 mm 2 m/s 737 mmHg 77%
    19:00 +19°C° 0 mm 2 m/s 737 mmHg 82%
    20:00 +19°C° 0 mm 1 m/s 737 mmHg 86%
    21:00 +16°C° 0 mm 1 m/s 737 mmHg 89%
    22:00 +15°C° 0 mm 1 m/s 737 mmHg 93%
    23:00 +15°C° 0 mm 1 m/s 737 mmHg 93%

    24 Julho, Quarta-feira

    Tempo Temperatura Precipitação Vento Pressão Humidade
    00:00 +14°C° 0 mm 1 m/s 737 mmHg 94%
    01:00 +14°C° 0 mm 1 m/s 737 mmHg 94%
    02:00 +14°C° 0 mm 1 m/s 738 mmHg 94%
    03:00 +13°C° 0 mm 1 m/s 738 mmHg 95%
    04:00 +13°C° 0 mm 1 m/s 738 mmHg 95%
    05:00 +15°C° 0 mm 1 m/s 738 mmHg 92%
    06:00 +16°C° 0 mm 1 m/s 739 mmHg 89%
    07:00 +18°C° 0 mm 1 m/s 739 mmHg 86%
    08:00 +20°C° 0 mm 1 m/s 739 mmHg 81%
    09:00 +21°C° 0 mm 1 m/s 739 mmHg 75%
    10:00 +23°C° 0 mm 2 m/s 739 mmHg 70%
    11:00 +23°C° 0 mm 2 m/s 740 mmHg 68%
    12:00 +24°C° 0 mm 2 m/s 740 mmHg 67%
    13:00 +24°C° 0 mm 2 m/s 740 mmHg 65%
    14:00 +24°C° 0 mm 2 m/s 740 mmHg 65%
    15:00 +25°C° 0 mm 2 m/s 740 mmHg 64%
    16:00 +25°C° 0 mm 2 m/s 740 mmHg 64%
    17:00 +24°C° 0 mm 1 m/s 740 mmHg 69%
    18:00 +24°C° 0 mm 1 m/s 740 mmHg 74%
    19:00 +23°C° 0 mm 1 m/s 740 mmHg 80%
    20:00 +19°C° 0 mm 0 m/s 740 mmHg 83%
    21:00 +18°C° 0 mm 0 m/s 740 mmHg 87%
    22:00 +16°C° 0 mm 0 m/s 740 mmHg 90%
    23:00 +16°C° 0 mm 0 m/s 740 mmHg 91%
    Mostrar mais